Location: Home
(42.5358°N, 72.7383°W)
Time: 17:57:48
(UTC-05:00)

A-11 Canister half - Pass Details

Date: 29 November 2021
Orbit: 1516 x 1684 km, 47.2° (Epoch: 18 January)

Event Time Altitude Azimuth Distance (km) Brightness Sun altitude
Rises 05:56:45 0° 191° (S) 4,736 11.7 -11.3°
Reaches altitude 10° 06:00:29 10° 179° (S) 3,781 11.3 -10.7°
Maximum altitude 06:07:51 25° 128° (SE) 2,811 11.4 -9.4°
Drops below altitude 10° 06:15:24 10° 78° (ENE) 3,895 12.1 -8.1°
Sets 06:19:16 0° 66° (ENE) 4,907 12.4 -7.4°
